Amateur Radio Satellites - All Passes

Search period start: 22 May 2013 19:42
Search period end: 23 May 2013 19:42
Location: Hopkins Observatory, 42.6965°N, 73.1843°W

Satellite Date Start Highest point End Downlink Frequencies (MHz)
Time Altitude Azimuth
JAS-2 22 May 19:47:41 19:52:02 16° 52° (NE) 19:56:21 435.800 - 435.900 CW/SSB, 435.910 FM
RS-15 22 May 19:48:48 19:58:52 31° 333° (NNW) 20:08:37 29.354 - 29.394 USB, Beacon 29.352 USB
UOSAT-12 22 May 19:53:11 19:57:34 41° 50° (NE) 20:01:56 437.025 FM, 437.400 FM
SO-67 22 May 19:55:19 19:58:53 77° 258° (WSW) 20:02:29 435.3500 MHz FM
JAS-1B 22 May 20:25:19 20:34:25 57° 259° (W) 20:42:14 435.800 - 435.900 CW/SSB
STRAND 1 22 May 20:28:38 20:32:57 28° 295° (WNW) 20:37:15 ?
Oscar 11 22 May 21:06:23 21:10:01 27° 68° (ENE) 21:13:41 145.825 FM, Beacon 2401.500 USB
HO-68 22 May 21:09:14 21:16:18 71° 70° (ENE) 21:23:25 435.675 MHz FM
OPAL 22 May 21:14:37 21:18:45 25° 62° (ENE) 21:22:51 ?
AO-40 22 May 21:15:24 02:47:17 45° 179° (S) 08:52:31 Beacon 2401.320
JAS-2 22 May 21:28:01 21:35:40 68° 71° (ENE) 21:43:26 435.800 - 435.900 CW/SSB, 435.910 FM
UOSAT-12 22 May 21:33:48 21:37:32 25° 247° (WSW) 21:41:16 437.025 FM, 437.400 FM
RS-15 22 May 22:07:27 22:16:13 24° 9° (N) 22:24:43 29.354 - 29.394 USB, Beacon 29.352 USB
KITSAT 1 22 May 22:07:43 22:14:20 29° 106° (ESE) 22:20:57 435.175 FM
Oscar 11 22 May 22:42:29 22:46:11 28° 264° (W) 22:49:55 145.825 FM, Beacon 2401.500 USB
OPAL 22 May 22:52:23 22:57:22 46° 259° (WSW) 23:02:20 ?
HO-68 22 May 22:59:17 23:04:35 22° 268° (W) 23:09:57 435.675 MHz FM
JAS-2 22 May 23:14:49 23:21:08 27° 269° (W) 23:27:36 435.800 - 435.900 CW/SSB, 435.910 FM
KITSAT 1 23 May 00:01:06 00:09:06 67° 306° (NW) 00:17:12 435.175 FM
MaSat-1 23 May 00:15:58 00:17:50 11° 100° (E) 00:19:38 437.345 MHz
RS-15 23 May 00:21:38 00:32:23 47° 42° (NE) 00:42:46 29.354 - 29.394 USB, Beacon 29.352 USB
Oscar 16 23 May 01:23:53 01:26:33 14° 89° (E) 01:29:11 437.025 USB, Beacon 2401.1428
AO-27 23 May 01:33:33 01:35:41 12° 89° (E) 01:37:48 436.795 MHz FM
ITAMSAT 1 23 May 01:39:41 01:42:23 14° 90° (E) 01:45:05 435.822 SSB
ISS 23 May 01:45:51 01:47:07 12° 130° (SE) 01:48:23 145.800 FM
MaSat-1 23 May 01:52:21 01:59:24 67° 113° (ESE) 02:05:10 437.345 MHz
KITSAT 1 23 May 02:00:16 02:06:11 22° 330° (NNW) 02:12:09 435.175 FM
Uribyol 2 23 May 02:19:07 02:23:54 35° 97° (E) 02:28:38 436.500 FM
Oscar 19 23 May 02:22:01 02:26:56 42° 98° (E) 02:31:47 437.125 CW, 437.150 USB
AO-Echo 23 May 02:26:45 02:28:38 12° 90° (E) 02:30:32 ?
RS-15 23 May 02:34:21 02:45:04 58° 246° (WSW) 02:55:34 29.354 - 29.394 USB, Beacon 29.352 USB
Oscar 16 23 May 03:01:17 03:06:27 73° 286° (WNW) 03:11:35 437.025 USB, Beacon 2401.1428
AO-27 23 May 03:10:35 03:15:50 82° 285° (WNW) 03:21:03 436.795 MHz FM
ITAMSAT 1 23 May 03:17:13 03:22:26 74° 286° (WNW) 03:27:39 435.822 SSB
ISS 23 May 03:20:03 03:23:21 87° 329° (NNW) 03:26:42 145.800 FM
MaSat-1 23 May 03:36:26 03:41:49 25° 307° (NW) 03:46:25 437.345 MHz
Gurwin Techsat 1B 23 May 03:36:37 03:40:47 23° 93° (E) 03:44:56 435.225 FM
Uosat F 23 May 03:56:15 04:00:59 40° 98° (E) 04:05:42 435.120 FM
Uribyol 2 23 May 03:58:44 04:03:17 31° 294° (WNW) 04:07:50 436.500 FM
Oscar 19 23 May 04:01:52 04:06:03 25° 295° (WNW) 04:10:12 437.125 CW, 437.150 USB
KITSAT 1 23 May 04:02:05 04:05:25 13° 1° (N) 04:08:45 435.175 FM
AO-Echo 23 May 04:03:11 04:07:56 73° 286° (WNW) 04:12:45 ?
Oscar 16 23 May 04:44:15 04:44:53 10° 304° (NW) 04:45:31 437.025 USB, Beacon 2401.1428
AO-27 23 May 04:52:40 04:54:31 12° 303° (WNW) 04:56:22 436.795 MHz FM
TMSAT-1 23 May 04:53:41 04:59:02 78° 103° (ESE) 05:04:20 436.925 FM
ISS 23 May 04:57:44 05:00:26 23° 345° (NNW) 05:03:10 145.800 FM
ITAMSAT 1 23 May 05:00:00 05:01:02 11° 304° (NW) 05:02:03 435.822 SSB
AO-7 23 May 05:08:31 05:16:06 36° 97° (E) 05:23:36 29.400 - 29.500 MHz
Gurwin Techsat 1B 23 May 05:15:54 05:20:59 47° 290° (WNW) 05:26:03 435.225 FM
Saudisat 1A 23 May 05:33:45 05:38:06 46° 118° (ESE) 05:42:31 436.775 MHz
Uosat F 23 May 05:35:30 05:39:35 26° 295° (WNW) 05:43:40 435.120 FM
KITSAT 1 23 May 05:58:31 06:04:36 22° 31° (NNE) 06:10:40 435.175 FM
STRAND 1 23 May 06:05:53 06:10:52 60° 72° (ENE) 06:15:54 ?
Sapphire 23 May 06:25:34 06:29:05 18° 105° (ESE) 06:32:37 437.095 MHz 1200 baud AX-25 AFSK
TMSAT-1 23 May 06:35:17 06:38:18 16° 301° (WNW) 06:41:20 436.925 FM
ISS 23 May 06:35:37 06:38:01 18° 6° (N) 06:40:25 145.800 FM
Hamsat 23 May 06:55:04 06:57:45 16° 91° (E) 07:00:26 145.90 MHz
AO-7 23 May 07:01:04 07:09:07 54° 296° (WNW) 07:17:08 29.400 - 29.500 MHz
Saudisat 1A 23 May 07:14:11 07:18:00 25° 316° (NW) 07:21:52 436.775 MHz
PCSat 23 May 07:33:32 07:38:54 72° 117° (ESE) 07:44:20 145.825 MHz
STRAND 1 23 May 07:47:15 07:50:29 17° 269° (W) 07:53:43 ?
KITSAT 1 23 May 07:53:27 08:01:36 70° 55° (NE) 08:09:41 435.175 FM
Sapphire 23 May 08:06:34 08:11:56 67° 303° (WNW) 08:17:22 437.095 MHz 1200 baud AX-25 AFSK
JAS-1B 23 May 08:11:21 08:16:57 39° 97° (E) 08:22:12 435.800 - 435.900 CW/SSB
ISS 23 May 08:12:13 08:15:24 39° 25° (NNE) 08:18:35 145.800 FM
Hamsat 23 May 08:29:53 08:34:05 48° 287° (WNW) 08:38:18 145.90 MHz
HO-68 23 May 08:40:19 08:41:45 11° 86° (E) 08:43:11 435.675 MHz FM
SO-50 23 May 08:46:33 08:51:18 65° 120° (ESE) 08:56:00 436.795 FM
SO-67 23 May 08:54:48 08:58:22 63° 284° (WNW) 09:01:54 435.3500 MHz FM
AO-7 23 May 08:56:32 09:00:02 13° 318° (NW) 09:03:33 29.400 - 29.500 MHz
Oscar 10/S400 23 May 08:58:35 11:20:07 27° 270° (W) 17:42:37 145.825 - 145.975 CW/USB, Beacon 145.810 USB
PCSat 23 May 09:18:49 09:22:54 21° 317° (NW) 09:27:00 145.825 MHz
ISS 23 May 09:49:02 09:52:04 31° 223° (SW) 09:55:05 145.800 FM
KITSAT 1 23 May 09:49:48 09:56:19 28° 255° (WSW) 10:02:51 435.175 FM
Sapphire 23 May 09:53:39 09:56:27 14° 324° (NW) 09:59:16 437.095 MHz 1200 baud AX-25 AFSK
JAS-1B 23 May 10:02:20 10:07:31 30° 298° (WNW) 10:12:21 435.800 - 435.900 CW/SSB
JAS-2 23 May 10:23:14 10:30:01 55° 98° (E) 10:35:57 435.800 - 435.900 CW/SSB, 435.910 FM
HO-68 23 May 10:23:32 10:30:42 68° 104° (ESE) 10:37:49 435.675 MHz FM
SO-50 23 May 10:28:45 10:32:21 21° 319° (NW) 10:35:55 436.795 FM
Oscar 11 23 May 10:28:59 10:33:14 49° 99° (E) 10:37:28 145.825 FM, Beacon 2401.500 USB
MaSat-1 23 May 10:38:09 10:40:47 20° 50° (NE) 10:43:03 437.345 MHz
OPAL 23 May 11:01:36 11:06:22 42° 101° (E) 11:11:03 ?
UOSAT-12 23 May 11:45:03 11:49:33 83° 123° (ESE) 11:54:07 437.025 FM, 437.400 FM
Oscar 11 23 May 12:06:17 12:09:05 17° 296° (WNW) 12:11:54 145.825 FM, Beacon 2401.500 USB
JAS-2 23 May 12:08:51 12:14:35 28° 300° (WNW) 12:19:46 435.800 - 435.900 CW/SSB, 435.910 FM
HO-68 23 May 12:12:10 12:17:49 26° 303° (WNW) 12:23:27 435.675 MHz FM
MaSat-1 23 May 12:20:32 12:22:37 17° 257° (WSW) 12:24:29 437.345 MHz
Saudisat 1A 23 May 12:23:31 12:23:58 10° 30° (NNE) 12:24:25 436.775 MHz
OPAL 23 May 12:41:01 12:45:01 25° 298° (WNW) 12:48:59 ?
Oscar 16 23 May 12:41:11 12:45:14 24° 64° (ENE) 12:49:19 437.025 USB, Beacon 2401.1428
AO-27 23 May 12:51:50 12:55:44 22° 63° (ENE) 12:59:39 436.795 MHz FM
ITAMSAT 1 23 May 12:58:05 13:02:11 24° 64° (ENE) 13:06:17 435.822 SSB
UOSAT-12 23 May 13:27:24 13:30:20 17° 322° (NW) 13:33:16 437.025 FM, 437.400 FM
Uribyol 2 23 May 13:37:46 13:42:49 56° 71° (ENE) 13:47:55 436.500 FM
Oscar 19 23 May 13:39:34 13:44:43 66° 73° (ENE) 13:49:53 437.125 CW, 437.150 USB
AO-Echo 23 May 13:40:16 13:43:35 19° 64° (ENE) 13:46:51 ?
Saudisat 1A 23 May 14:00:24 14:04:49 47° 51° (NE) 14:09:09 436.775 MHz
Oscar 16 23 May 14:19:19 14:24:18 47° 261° (W) 14:29:20 437.025 USB, Beacon 2401.1428
AO-7 23 May 14:21:53 14:25:11 13° 42° (NE) 14:28:30 29.400 - 29.500 MHz
AO-27 23 May 14:29:54 14:34:55 50° 260° (W) 14:39:58 436.795 MHz FM
ITAMSAT 1 23 May 14:36:29 14:41:25 45° 261° (W) 14:46:24 435.822 SSB
TMSAT-1 23 May 14:37:49 14:41:17 18° 61° (ENE) 14:44:46 436.925 FM
PCSat 23 May 14:38:56 14:41:47 14° 36° (NE) 14:44:37 145.825 MHz
RS-15 23 May 14:48:51 14:57:22 23° 100° (E) 15:05:38 29.354 - 29.394 USB, Beacon 29.352 USB
Gurwin Techsat 1B 23 May 14:58:20 15:03:13 39° 68° (ENE) 15:08:07 435.225 FM
Uosat F 23 May 15:10:20 15:15:15 60° 72° (ENE) 15:20:11 435.120 FM
Sapphire 23 May 15:11:14 15:15:20 21° 43° (NE) 15:19:26 437.095 MHz 1200 baud AX-25 AFSK
AO-Echo 23 May 15:17:18 15:22:01 51° 260° (W) 15:26:40 ?
Uribyol 2 23 May 15:19:08 15:22:41 18° 268° (W) 15:26:14 436.500 FM
Oscar 19 23 May 15:21:28 15:24:32 16° 270° (W) 15:27:38 437.125 CW, 437.150 USB
SO-50 23 May 15:39:03 15:41:15 13° 34° (NE) 15:43:25 436.795 FM
Saudisat 1A 23 May 15:40:50 15:44:12 21° 249° (WSW) 15:47:30 436.775 MHz
AO-7 23 May 16:08:09 16:16:05 53° 64° (ENE) 16:24:04 29.400 - 29.500 MHz
TMSAT-1 23 May 16:15:26 16:20:41 66° 258° (WSW) 16:25:59 436.925 FM
PCSat 23 May 16:20:51 16:26:17 67° 58° (ENE) 16:31:40 145.825 MHz
Gurwin Techsat 1B 23 May 16:38:46 16:43:16 28° 265° (W) 16:47:49 435.225 FM
Uosat F 23 May 16:51:24 16:54:27 16° 269° (W) 16:57:32 435.120 FM
Sapphire 23 May 16:53:54 16:59:20 72° 243° (WSW) 17:04:43 437.095 MHz 1200 baud AX-25 AFSK
RS-15 23 May 16:56:08 17:08:13 87° 121° (ESE) 17:19:48 29.354 - 29.394 USB, Beacon 29.352 USB
SO-50 23 May 17:18:10 17:22:44 71° 54° (NE) 17:27:12 436.795 FM
Hamsat 23 May 17:51:05 17:53:07 13° 63° (ENE) 17:55:09 145.90 MHz
AO-7 23 May 18:01:37 18:09:05 37° 263° (W) 18:16:39 29.400 - 29.500 MHz
PCSat 23 May 18:05:36 18:09:08 18° 255° (WSW) 18:12:39 145.825 MHz
STRAND 1 23 May 18:16:47 18:20:25 19° 92° (E) 18:24:02 ?
UOSAT-12 23 May 18:35:07 18:37:52 15° 37° (NE) 18:40:37 437.025 FM, 437.400 FM
JAS-1B 23 May 18:54:35 19:03:04 47° 67° (ENE) 19:10:20 435.800 - 435.900 CW/SSB
SO-50 23 May 19:00:38 19:02:45 13° 252° (WSW) 19:04:51 436.795 FM
HO-68 23 May 19:11:11 19:13:20 12° 47° (NE) 19:15:30 435.675 MHz FM
RS-15 23 May 19:11:31 19:22:08 36° 327° (NNW) 19:32:23 29.354 - 29.394 USB, Beacon 29.352 USB
Hamsat 23 May 19:24:31 19:28:41 60° 260° (W) 19:32:54 145.90 MHz
SO-67 23 May 19:31:13 19:34:40 49° 74° (ENE) 19:38:09 435.3500 MHz FM

Developed and maintained by Chris Peat, Heavens-Above GmbH. Please read the updated FAQ before sending e-mail. Imprint. DLR
